Master Jet — 5BKD3 — position and weather

sailwx.info

Track history (hours):
 
Tides and Currents Weather Stations Pressure Air Temp Water Temp Dewpoint Dewpoint Depression Visibility Wind Speed Wind Dir Waves Ship Positions

Master Jet

Last reported at 2014-Aug-30 05:08 UTC. Time now 2014-Aug-30 06:29 UTC.
Position N 37°39' E 023°55'.

Length 74 m; draft 2.9 m.

Type: Ship. MMSI: 209349000.

Date/timePositionNaut miles runAvg speedWind from/ knotsBaromVisibWave heightAir tempDewpointWater temp
2014-Aug-30 05:08N 37°39' E 023°55'1525.8
2014-Aug-30 04:33N 37°46' E 023°39'1010.5
2014-Aug-30 03:33N 37°57' E 023°39'0 0.0
2014-Aug-30 02:33N 37°57' E 023°39'0 0.0
2014-Aug-30 01:33N 37°57' E 023°39'0 0.0
2014-Aug-30 00:33N 37°57' E 023°39'0 0.0
2014-Aug-29 23:33N 37°57' E 023°39'0 0.0
2014-Aug-29 22:33N 37°57' E 023°39'0 0.0
2014-Aug-29 21:33N 37°57' E 023°39'0 0.0
2014-Aug-29 20:33N 37°57' E 023°39'3 3.0
2014-Aug-29 19:34N 37°54' E 023°38'4923.2
2014-Aug-29 17:27N 37°36' E 024°36'2124.1
2014-Aug-29 16:34N 37°35' E 025°03'1414.2
2014-Aug-29 15:33N 37°27' E 025°19'2121.3
2014-Aug-29 14:33N 37°06' E 025°22'8 7.9
2014-Aug-29 13:34N 36°59' E 025°17'1716.8
2014-Aug-29 12:34N 36°43' E 025°16'2121.1
2014-Aug-29 11:34N 36°23' E 025°26'1010.0
2014-Aug-29 10:33N 36°33' E 025°22'2928.6
2014-Aug-29 09:34N 37°01' E 025°19'1716.8
2014-Aug-29 08:34N 37°18' E 025°19'1414.5
2014-Aug-29 07:34N 37°31' E 025°11'2727.3
2014-Aug-29 06:34N 37°37' E 024°37'2322.4
2014-Aug-29 05:32N 37°37' E 024°08'2525.4
2014-Aug-29 04:34N 37°47' E 023°39'10 9.9
2014-Aug-29 03:34N 37°57' E 023°39'0 0.0
2014-Aug-29 02:34N 37°57' E 023°39'0 0.0
2014-Aug-29 01:34N 37°57' E 023°39'0 0.0
2014-Aug-29 00:34N 37°57' E 023°39'0 0.0
2014-Aug-28 23:33N 37°57' E 023°39'0 0.0
2014-Aug-28 22:34N 37°57' E 023°39'0 0.0
2014-Aug-28 21:33N 37°57' E 023°39'0 0.0
2014-Aug-28 20:33N 37°57' E 023°39'0 0.0
2014-Aug-28 19:34N 37°57' E 023°39'1313.0
2014-Aug-28 18:33N 37°44' E 023°43'3226.3
2014-Aug-28 17:21N 37°32' E 024°21'2926.5
2014-Aug-28 16:15N 37°33' E 024°57'1724.7
2014-Aug-28 15:34N 37°28' E 025°18'1616.0
2014-Aug-28 14:34N 37°13' E 025°20'1313.4
2014-Aug-28 13:34N 36°59' E 025°17'1717.3
2014-Aug-28 12:34N 36°42' E 025°16'2120.4
2014-Aug-28 11:33N 36°23' E 025°26'4 3.9
2014-Aug-28 10:33N 36°24' E 025°21'2727.4
2014-Aug-28 09:34N 36°51' E 025°15'1818.2
2014-Aug-28 08:34N 37°09' E 025°21'1919.2
2014-Aug-28 07:33N 37°28' E 025°19'2625.7
2014-Aug-28 06:33N 37°31' E 024°47'2828.1
2014-Aug-28 05:33N 37°32' E 024°12'2828.2
2014-Aug-28 04:33N 37°45' E 023°40'1211.7
2014-Aug-28 03:34N 37°57' E 023°39'0 0.0
2014-Aug-28 02:34N 37°57' E 023°39'0 0.0
2014-Aug-28 01:34N 37°57' E 023°39'0 0.0
2014-Aug-28 00:33N 37°57' E 023°39'0 0.0
2014-Aug-27 23:34N 37°57' E 023°39'0 0.0
2014-Aug-27 22:33N 37°57' E 023°39'0 0.0
2014-Aug-27 21:33N 37°57' E 023°39'0 0.0
2014-Aug-27 20:33N 37°57' E 023°39'0 0.0
2014-Aug-27 19:34N 37°57' E 023°39'6 6.2
2014-Aug-27 18:34N 37°50' E 023°40'2726.4
2014-Aug-27 17:33N 37°35' E 024°07'2827.1
2014-Aug-27 16:31N 37°31' E 024°42'2627.7
2014-Aug-27 15:34N 37°28' E 025°15'1413.5
2014-Aug-27 14:34N 37°15' E 025°19'1514.7
2014-Aug-27 13:34N 37°00' E 025°18'1818.4
2014-Aug-27 12:33N 36°42' E 025°16'12 4.0
2014-Aug-27 09:33N 36°53' E 025°21'2420.6
2014-Aug-27 08:22N 37°17' E 025°19'1313.8
2014-Aug-27 07:23N 37°30' E 025°14'2528.1
2014-Aug-27 06:30N 37°32' E 024°42'5226.8
2014-Aug-27 04:33N 37°47' E 023°39'10 9.8
2014-Aug-27 03:33N 37°57' E 023°39'0 0.0
2014-Aug-27 02:33N 37°57' E 023°39'0 0.0
2014-Aug-27 01:33N 37°57' E 023°39'0 0.0
2014-Aug-27 00:33N 37°57' E 023°39'0 0.0
2014-Aug-26 23:33N 37°57' E 023°39'0 0.0
2014-Aug-26 22:33N 37°57' E 023°39'0 0.0
2014-Aug-26 21:33N 37°57' E 023°39'0 0.0
2014-Aug-26 20:33N 37°57' E 023°39'0 0.0
2014-Aug-26 19:33N 37°57' E 023°39'3 3.3
2014-Aug-26 18:34N 37°53' E 023°39'2726.5
2014-Aug-26 17:33N 37°36' E 024°04'2726.6
2014-Aug-26 16:33N 37°36' E 024°38'2727.8
2014-Aug-26 15:34N 37°31' E 025°12'1615.6
2014-Aug-26 14:34N 37°17' E 025°19'1414.4
2014-Aug-26 13:34N 37°02' E 025°18'1919.4
2014-Aug-26 12:34N 36°43' E 025°16'2121.2
2014-Aug-26 11:33N 36°23' E 025°26'1010.4
2014-Aug-26 10:34N 36°33' E 025°23'2928.6
2014-Aug-26 09:34N 37°02' E 025°19'1817.6
2014-Aug-26 08:34N 37°19' E 025°18'1212.4
2014-Aug-26 07:34N 37°31' E 025°13'2827.9
2014-Aug-26 06:33N 37°35' E 024°38'2625.7
2014-Aug-26 05:34N 37°34' E 024°06'2726.9
2014-Aug-26 04:33N 37°48' E 023°38'8 8.1
2014-Aug-26 03:33N 37°57' E 023°39'0 0.0
2014-Aug-26 02:34N 37°57' E 023°39'0 0.0
2014-Aug-26 01:34N 37°57' E 023°39'0 0.0
2014-Aug-26 00:33N 37°57' E 023°39'0 0.0
2014-Aug-25 23:33N 37°57' E 023°39'0 0.0
2014-Aug-25 22:34N 37°57' E 023°39'0 0.0
2014-Aug-25 21:33N 37°57' E 023°39'0 0.0
2014-Aug-25 20:33N 37°57' E 023°39'0 0.0
2014-Aug-25 19:34N 37°57' E 023°39'0 0.0
2014-Aug-25 18:34N 37°57' E 023°39'0 0.0
2014-Aug-25 17:34N 37°57' E 023°39'0 0.0
2014-Aug-25 16:34N 37°57' E 023°39'0 0.0
2014-Aug-25 15:33N 37°57' E 023°39'0 0.0
2014-Aug-25 14:34N 37°57' E 023°39'0 0.0
2014-Aug-25 13:33N 37°57' E 023°39'0 0.0
2014-Aug-25 11:33N 37°57' E 023°39'0 0.0
2014-Aug-25 10:34N 37°57' E 023°39'0 0.0
2014-Aug-25 09:33N 37°57' E 023°39'0 0.0
2014-Aug-25 08:33N 37°57' E 023°39'0 0.0
2014-Aug-24 19:34N 37°57' E 023°38'1818.4
2014-Aug-24 18:33N 37°40' E 023°50'2724.1
2014-Aug-24 17:27N 37°31' E 024°21'2224.5
2014-Aug-24 16:33N 37°31' E 024°49'2424.4
2014-Aug-24 15:34N 37°28' E 025°19'1716.7
2014-Aug-24 14:34N 37°11' E 025°20'1111.3
2014-Aug-24 13:34N 36°60' E 025°17'1918.6
2014-Aug-24 12:33N 36°41' E 025°16'2019.9
2014-Aug-24 11:33N 36°23' E 025°26'1313.4
2014-Aug-24 10:34N 36°36' E 025°23'2625.9
2014-Aug-24 09:33N 37°02' E 025°18'1716.7
2014-Aug-24 08:34N 37°19' E 025°18'1312.7
2014-Aug-24 07:34N 37°30' E 025°11'2626.3
2014-Aug-24 06:34N 37°32' E 024°38'2625.8
2014-Aug-24 05:33N 37°34' E 024°05'2525.1
2014-Aug-24 04:33N 37°47' E 023°39'9 9.4
2014-Aug-24 03:33N 37°57' E 023°39'0 0.0
2014-Aug-24 02:33N 37°57' E 023°39'0 0.0
2014-Aug-24 01:33N 37°57' E 023°39'0 0.0
2014-Aug-24 00:33N 37°57' E 023°39'0 0.0
2014-Aug-23 23:33N 37°57' E 023°39'0 0.0
2014-Aug-23 22:33N 37°57' E 023°39'0 0.0
2014-Aug-23 21:33N 37°57' E 023°39'6 6.2
2014-Aug-23 20:34N 37°50' E 023°40'2422.5
2014-Aug-23 19:30N 37°35' E 024°03'29 1.8
2014-Aug-23 03:33N 37°57' E 023°39'0 0.0
2014-Aug-23 02:34N 37°57' E 023°39'0 0.0
2014-Aug-23 01:34N 37°57' E 023°39'0 0.0
2014-Aug-23 00:33N 37°57' E 023°39'0 0.1
2014-Aug-22 22:33N 37°57' E 023°38'1615.9
2014-Aug-22 21:33N 37°42' E 023°46'2121.2
2014-Aug-22 20:33N 37°33' E 024°10'2221.3
2014-Aug-22 19:32N 37°31' E 024°37'2020.8
2014-Aug-22 18:33N 37°30' E 025°03'1212.0
2014-Aug-22 17:34N 37°27' E 025°18'2120.6
2014-Aug-22 16:34N 37°07' E 025°22'1110.9
2014-Aug-22 15:34N 36°57' E 025°17'1313.1
2014-Aug-22 14:33N 36°43' E 025°16'1918.7
2014-Aug-22 13:34N 36°25' E 025°19'5 5.5
2014-Aug-22 12:34N 36°23' E 025°25'1818.2
2014-Aug-22 11:33N 36°41' E 025°24'2121.4
2014-Aug-22 10:33N 37°02' E 025°19'1414.3
2014-Aug-22 09:33N 37°17' E 025°19'1312.6
2014-Aug-22 08:33N 37°29' E 025°17'2221.7
2014-Aug-22 07:33N 37°32' E 024°50'2121.4
2014-Aug-22 06:34N 37°31' E 024°23'2221.1
2014-Aug-22 05:32N 37°37' E 023°57'1919.9
2014-Aug-22 04:33N 37°49' E 023°38'7 7.3
2014-Aug-22 03:33N 37°57' E 023°39'0 0.0
2014-Aug-22 02:33N 37°57' E 023°39'0 0.0
2014-Aug-22 01:33N 37°57' E 023°39'0 0.0
2014-Aug-22 00:33N 37°57' E 023°39'0 0.0
2014-Aug-21 23:33N 37°57' E 023°39'0 0.0
2014-Aug-21 22:33N 37°57' E 023°39'0 0.1
2014-Aug-21 21:34N 37°57' E 023°38'1716.6
2014-Aug-21 20:33N 37°42' E 023°48'2321.3
2014-Aug-21 19:29N 37°32' E 024°14'2121.5
2014-Aug-21 18:31N 37°31' E 024°40'2021.0
2014-Aug-21 17:34N 37°30' E 025°05'1010.3
2014-Aug-21 16:33N 37°26' E 025°17'2019.6
2014-Aug-21 15:33N 37°06' E 025°22'1413.9
2014-Aug-21 14:34N 36°53' E 025°16'1615.9
2014-Aug-21 13:33N 36°38' E 025°16'1616.0
2014-Aug-21 12:33N 36°23' E 025°26'0 0.0
2014-Aug-21 11:33N 36°23' E 025°26'1211.8
2014-Aug-21 10:34N 36°32' E 025°17'2929.1
2014-Aug-21 09:34N 37°02' E 025°18'1818.0
2014-Aug-21 08:33N 37°20' E 025°18'1110.8
2014-Aug-21 07:33N 37°29' E 025°13'2928.1
2014-Aug-21 06:32N 37°31' E 024°36'2626.3
2014-Aug-21 05:34N 37°35' E 024°04'2424.4
2014-Aug-21 04:33N 37°48' E 023°38'9 8.7
2014-Aug-21 03:33N 37°57' E 023°39'0 0.0
2014-Aug-21 02:33N 37°57' E 023°39'0 0.0
2014-Aug-21 01:33N 37°57' E 023°39'0 0.0
2014-Aug-21 00:33N 37°57' E 023°39'0 0.0
2014-Aug-20 23:33N 37°57' E 023°39'0 0.0
2014-Aug-20 22:33N 37°57' E 023°39'0 0.0
2014-Aug-20 21:33N 37°57' E 023°39'0 0.0
2014-Aug-20 20:33N 37°57' E 023°39'0 0.0
2014-Aug-20 19:33N 37°57' E 023°39'3 2.6
2014-Aug-20 18:34N 37°54' E 023°38'3126.6
2014-Aug-20 17:24N 37°34' E 024°08'2327.9
2014-Aug-20 16:34N 37°31' E 024°37'2827.9
2014-Aug-20 15:34N 37°29' E 025°12'1212.0
2014-Aug-20 14:34N 37°18' E 025°18'1414.1
2014-Aug-20 13:34N 37°04' E 025°18'2020.4
2014-Aug-20 12:34N 36°43' E 025°16'2221.4
2014-Aug-20 11:33N 36°23' E 025°26'5 4.9
2014-Aug-20 10:33N 36°27' E 025°22'2929.0
2014-Aug-20 09:34N 36°56' E 025°20'1515.1
2014-Aug-20 08:34N 37°11' E 025°21'1717.0
2014-Aug-20 07:34N 37°28' E 025°19'2726.9
2014-Aug-20 06:33N 37°32' E 024°46'  
Track history (hours):
 
Tides and Currents Weather Stations Pressure Air Temp Water Temp Dewpoint Dewpoint Depression Visibility Wind Speed Wind Dir Waves Ship Positions

Master Jet

Last reported at 2014-Aug-30 05:08 UTC. Time now 2014-Aug-30 06:29 UTC.
Position N 37°39' E 023°55'.

Length 74 m; draft 2.9 m.

Type: Ship. MMSI: 209349000.

Date/timePositionNaut miles runAvg speedWind from/ knotsBaromVisibWave heightAir tempDewpointWater temp
2014-Aug-30 05:08N 37°39' E 023°55'1525.8
2014-Aug-30 04:33N 37°46' E 023°39'1010.5
2014-Aug-30 03:33N 37°57' E 023°39'0 0.0
2014-Aug-30 02:33N 37°57' E 023°39'0 0.0
2014-Aug-30 01:33N 37°57' E 023°39'0 0.0
2014-Aug-30 00:33N 37°57' E 023°39'0 0.0
2014-Aug-29 23:33N 37°57' E 023°39'0 0.0
2014-Aug-29 22:33N 37°57' E 023°39'0 0.0
2014-Aug-29 21:33N 37°57' E 023°39'0 0.0
2014-Aug-29 20:33N 37°57' E 023°39'3 3.0
2014-Aug-29 19:34N 37°54' E 023°38'4923.2
2014-Aug-29 17:27N 37°36' E 024°36'2124.1
2014-Aug-29 16:34N 37°35' E 025°03'1414.2
2014-Aug-29 15:33N 37°27' E 025°19'2121.3
2014-Aug-29 14:33N 37°06' E 025°22'8 7.9
2014-Aug-29 13:34N 36°59' E 025°17'1716.8
2014-Aug-29 12:34N 36°43' E 025°16'2121.1
2014-Aug-29 11:34N 36°23' E 025°26'1010.0
2014-Aug-29 10:33N 36°33' E 025°22'2928.6
2014-Aug-29 09:34N 37°01' E 025°19'1716.8
2014-Aug-29 08:34N 37°18' E 025°19'1414.5
2014-Aug-29 07:34N 37°31' E 025°11'2727.3
2014-Aug-29 06:34N 37°37' E 024°37'2322.4
2014-Aug-29 05:32N 37°37' E 024°08'2525.4
2014-Aug-29 04:34N 37°47' E 023°39'10 9.9
2014-Aug-29 03:34N 37°57' E 023°39'0 0.0
2014-Aug-29 02:34N 37°57' E 023°39'0 0.0
2014-Aug-29 01:34N 37°57' E 023°39'0 0.0
2014-Aug-29 00:34N 37°57' E 023°39'0 0.0
2014-Aug-28 23:33N 37°57' E 023°39'0 0.0
2014-Aug-28 22:34N 37°57' E 023°39'0 0.0
2014-Aug-28 21:33N 37°57' E 023°39'0 0.0
2014-Aug-28 20:33N 37°57' E 023°39'0 0.0
2014-Aug-28 19:34N 37°57' E 023°39'1313.0
2014-Aug-28 18:33N 37°44' E 023°43'3226.3
2014-Aug-28 17:21N 37°32' E 024°21'2926.5
2014-Aug-28 16:15N 37°33' E 024°57'1724.7
2014-Aug-28 15:34N 37°28' E 025°18'1616.0
2014-Aug-28 14:34N 37°13' E 025°20'1313.4
2014-Aug-28 13:34N 36°59' E 025°17'1717.3
2014-Aug-28 12:34N 36°42' E 025°16'2120.4
2014-Aug-28 11:33N 36°23' E 025°26'4 3.9
2014-Aug-28 10:33N 36°24' E 025°21'2727.4
2014-Aug-28 09:34N 36°51' E 025°15'1818.2
2014-Aug-28 08:34N 37°09' E 025°21'1919.2
2014-Aug-28 07:33N 37°28' E 025°19'2625.7
2014-Aug-28 06:33N 37°31' E 024°47'2828.1
2014-Aug-28 05:33N 37°32' E 024°12'2828.2
2014-Aug-28 04:33N 37°45' E 023°40'1211.7
2014-Aug-28 03:34N 37°57' E 023°39'0 0.0
2014-Aug-28 02:34N 37°57' E 023°39'0 0.0
2014-Aug-28 01:34N 37°57' E 023°39'0 0.0
2014-Aug-28 00:33N 37°57' E 023°39'0 0.0
2014-Aug-27 23:34N 37°57' E 023°39'0 0.0
2014-Aug-27 22:33N 37°57' E 023°39'0 0.0
2014-Aug-27 21:33N 37°57' E 023°39'0 0.0
2014-Aug-27 20:33N 37°57' E 023°39'0 0.0
2014-Aug-27 19:34N 37°57' E 023°39'6 6.2
2014-Aug-27 18:34N 37°50' E 023°40'2726.4
2014-Aug-27 17:33N 37°35' E 024°07'2827.1
2014-Aug-27 16:31N 37°31' E 024°42'2627.7
2014-Aug-27 15:34N 37°28' E 025°15'1413.5
2014-Aug-27 14:34N 37°15' E 025°19'1514.7
2014-Aug-27 13:34N 37°00' E 025°18'1818.4
2014-Aug-27 12:33N 36°42' E 025°16'12 4.0
2014-Aug-27 09:33N 36°53' E 025°21'2420.6
2014-Aug-27 08:22N 37°17' E 025°19'1313.8
2014-Aug-27 07:23N 37°30' E 025°14'2528.1
2014-Aug-27 06:30N 37°32' E 024°42'5226.8
2014-Aug-27 04:33N 37°47' E 023°39'10 9.8
2014-Aug-27 03:33N 37°57' E 023°39'0 0.0
2014-Aug-27 02:33N 37°57' E 023°39'0 0.0
2014-Aug-27 01:33N 37°57' E 023°39'0 0.0
2014-Aug-27 00:33N 37°57' E 023°39'0 0.0
2014-Aug-26 23:33N 37°57' E 023°39'0 0.0
2014-Aug-26 22:33N 37°57' E 023°39'0 0.0
2014-Aug-26 21:33N 37°57' E 023°39'0 0.0
2014-Aug-26 20:33N 37°57' E 023°39'0 0.0
2014-Aug-26 19:33N 37°57' E 023°39'3 3.3
2014-Aug-26 18:34N 37°53' E 023°39'2726.5
2014-Aug-26 17:33N 37°36' E 024°04'2726.6
2014-Aug-26 16:33N 37°36' E 024°38'2727.8
2014-Aug-26 15:34N 37°31' E 025°12'1615.6
2014-Aug-26 14:34N 37°17' E 025°19'1414.4
2014-Aug-26 13:34N 37°02' E 025°18'1919.4
2014-Aug-26 12:34N 36°43' E 025°16'2121.2
2014-Aug-26 11:33N 36°23' E 025°26'1010.4
2014-Aug-26 10:34N 36°33' E 025°23'2928.6
2014-Aug-26 09:34N 37°02' E 025°19'1817.6
2014-Aug-26 08:34N 37°19' E 025°18'1212.4
2014-Aug-26 07:34N 37°31' E 025°13'2827.9
2014-Aug-26 06:33N 37°35' E 024°38'2625.7
2014-Aug-26 05:34N 37°34' E 024°06'2726.9
2014-Aug-26 04:33N 37°48' E 023°38'8 8.1
2014-Aug-26 03:33N 37°57' E 023°39'0 0.0
2014-Aug-26 02:34N 37°57' E 023°39'0 0.0
2014-Aug-26 01:34N 37°57' E 023°39'0 0.0
2014-Aug-26 00:33N 37°57' E 023°39'0 0.0
2014-Aug-25 23:33N 37°57' E 023°39'0 0.0
2014-Aug-25 22:34N 37°57' E 023°39'0 0.0
2014-Aug-25 21:33N 37°57' E 023°39'0 0.0
2014-Aug-25 20:33N 37°57' E 023°39'0 0.0
2014-Aug-25 19:34N 37°57' E 023°39'0 0.0
2014-Aug-25 18:34N 37°57' E 023°39'0 0.0
2014-Aug-25 17:34N 37°57' E 023°39'0 0.0
2014-Aug-25 16:34N 37°57' E 023°39'0 0.0
2014-Aug-25 15:33N 37°57' E 023°39'0 0.0
2014-Aug-25 14:34N 37°57' E 023°39'0 0.0
2014-Aug-25 13:33N 37°57' E 023°39'0 0.0
2014-Aug-25 11:33N 37°57' E 023°39'0 0.0
2014-Aug-25 10:34N 37°57' E 023°39'0 0.0
2014-Aug-25 09:33N 37°57' E 023°39'0 0.0
2014-Aug-25 08:33N 37°57' E 023°39'0 0.0
2014-Aug-24 19:34N 37°57' E 023°38'1818.4
2014-Aug-24 18:33N 37°40' E 023°50'2724.1
2014-Aug-24 17:27N 37°31' E 024°21'2224.5
2014-Aug-24 16:33N 37°31' E 024°49'2424.4
2014-Aug-24 15:34N 37°28' E 025°19'1716.7
2014-Aug-24 14:34N 37°11' E 025°20'1111.3
2014-Aug-24 13:34N 36°60' E 025°17'1918.6
2014-Aug-24 12:33N 36°41' E 025°16'2019.9
2014-Aug-24 11:33N 36°23' E 025°26'1313.4
2014-Aug-24 10:34N 36°36' E 025°23'2625.9
2014-Aug-24 09:33N 37°02' E 025°18'1716.7
2014-Aug-24 08:34N 37°19' E 025°18'1312.7
2014-Aug-24 07:34N 37°30' E 025°11'2626.3
2014-Aug-24 06:34N 37°32' E 024°38'2625.8
2014-Aug-24 05:33N 37°34' E 024°05'2525.1
2014-Aug-24 04:33N 37°47' E 023°39'9 9.4
2014-Aug-24 03:33N 37°57' E 023°39'0 0.0
2014-Aug-24 02:33N 37°57' E 023°39'0 0.0
2014-Aug-24 01:33N 37°57' E 023°39'0 0.0
2014-Aug-24 00:33N 37°57' E 023°39'0 0.0
2014-Aug-23 23:33N 37°57' E 023°39'0 0.0
2014-Aug-23 22:33N 37°57' E 023°39'0 0.0
2014-Aug-23 21:33N 37°57' E 023°39'6 6.2
2014-Aug-23 20:34N 37°50' E 023°40'2422.5
2014-Aug-23 19:30N 37°35' E 024°03'29 1.8
2014-Aug-23 03:33N 37°57' E 023°39'0 0.0
2014-Aug-23 02:34N 37°57' E 023°39'0 0.0
2014-Aug-23 01:34N 37°57' E 023°39'0 0.0
2014-Aug-23 00:33N 37°57' E 023°39'0 0.1
2014-Aug-22 22:33N 37°57' E 023°38'1615.9
2014-Aug-22 21:33N 37°42' E 023°46'2121.2
2014-Aug-22 20:33N 37°33' E 024°10'2221.3
2014-Aug-22 19:32N 37°31' E 024°37'2020.8
2014-Aug-22 18:33N 37°30' E 025°03'1212.0
2014-Aug-22 17:34N 37°27' E 025°18'2120.6
2014-Aug-22 16:34N 37°07' E 025°22'1110.9
2014-Aug-22 15:34N 36°57' E 025°17'1313.1
2014-Aug-22 14:33N 36°43' E 025°16'1918.7
2014-Aug-22 13:34N 36°25' E 025°19'5 5.5
2014-Aug-22 12:34N 36°23' E 025°25'1818.2
2014-Aug-22 11:33N 36°41' E 025°24'2121.4
2014-Aug-22 10:33N 37°02' E 025°19'1414.3
2014-Aug-22 09:33N 37°17' E 025°19'1312.6
2014-Aug-22 08:33N 37°29' E 025°17'2221.7
2014-Aug-22 07:33N 37°32' E 024°50'2121.4
2014-Aug-22 06:34N 37°31' E 024°23'2221.1
2014-Aug-22 05:32N 37°37' E 023°57'1919.9
2014-Aug-22 04:33N 37°49' E 023°38'7 7.3
2014-Aug-22 03:33N 37°57' E 023°39'0 0.0
2014-Aug-22 02:33N 37°57' E 023°39'0 0.0
2014-Aug-22 01:33N 37°57' E 023°39'0 0.0
2014-Aug-22 00:33N 37°57' E 023°39'0 0.0
2014-Aug-21 23:33N 37°57' E 023°39'0 0.0
2014-Aug-21 22:33N 37°57' E 023°39'0 0.1
2014-Aug-21 21:34N 37°57' E 023°38'1716.6
2014-Aug-21 20:33N 37°42' E 023°48'2321.3
2014-Aug-21 19:29N 37°32' E 024°14'2121.5
2014-Aug-21 18:31N 37°31' E 024°40'2021.0
2014-Aug-21 17:34N 37°30' E 025°05'1010.3
2014-Aug-21 16:33N 37°26' E 025°17'2019.6
2014-Aug-21 15:33N 37°06' E 025°22'1413.9
2014-Aug-21 14:34N 36°53' E 025°16'1615.9
2014-Aug-21 13:33N 36°38' E 025°16'1616.0
2014-Aug-21 12:33N 36°23' E 025°26'0 0.0
2014-Aug-21 11:33N 36°23' E 025°26'1211.8
2014-Aug-21 10:34N 36°32' E 025°17'2929.1
2014-Aug-21 09:34N 37°02' E 025°18'1818.0
2014-Aug-21 08:33N 37°20' E 025°18'1110.8
2014-Aug-21 07:33N 37°29' E 025°13'2928.1
2014-Aug-21 06:32N 37°31' E 024°36'2626.3
2014-Aug-21 05:34N 37°35' E 024°04'2424.4
2014-Aug-21 04:33N 37°48' E 023°38'9 8.7
2014-Aug-21 03:33N 37°57' E 023°39'0 0.0
2014-Aug-21 02:33N 37°57' E 023°39'0 0.0
2014-Aug-21 01:33N 37°57' E 023°39'0 0.0
2014-Aug-21 00:33N 37°57' E 023°39'0 0.0
2014-Aug-20 23:33N 37°57' E 023°39'0 0.0
2014-Aug-20 22:33N 37°57' E 023°39'0 0.0
2014-Aug-20 21:33N 37°57' E 023°39'0 0.0
2014-Aug-20 20:33N 37°57' E 023°39'0 0.0
2014-Aug-20 19:33N 37°57' E 023°39'3 2.6
2014-Aug-20 18:34N 37°54' E 023°38'3126.6
2014-Aug-20 17:24N 37°34' E 024°08'2327.9
2014-Aug-20 16:34N 37°31' E 024°37'2827.9
2014-Aug-20 15:34N 37°29' E 025°12'1212.0
2014-Aug-20 14:34N 37°18' E 025°18'1414.1
2014-Aug-20 13:34N 37°04' E 025°18'2020.4
2014-Aug-20 12:34N 36°43' E 025°16'2221.4
2014-Aug-20 11:33N 36°23' E 025°26'5 4.9
2014-Aug-20 10:33N 36°27' E 025°22'2929.0
2014-Aug-20 09:34N 36°56' E 025°20'1515.1
2014-Aug-20 08:34N 37°11' E 025°21'1717.0
2014-Aug-20 07:34N 37°28' E 025°19'2726.9
2014-Aug-20 06:33N 37°32' E 024°46'  

Dump ship's entire track history